x

Los Angeles Pier F, Ca - 9410670 (pfxc1) Weather Station

10:54 - Sat 25th Feb 2017 All times are PST. -8 hours from GMT.

  • Wind
    6mph, 7mph gusts
  • Air Temp 54°f
  • Sea Pressure 1016mb
  • Los Angeles Pier F, Ca - 9410670
  • Los Angeles Pier F, Ca - 9410670

More Historic Weather Station data

Upgrade to MSW Pro to gain access to the past 30 days of data for over 8000 Wavebouys and Weather Stations around the globe.

Join Pro

Comparision Forecast

View Surf forecast
   
sam. 02/25 10:54 6 7 mph 1016mb 54f
10:48 7 9 mph 1016.1mb 54f
10:42 7 8 mph 1016.1mb 54f
10:36 8 10 mph 1016.2mb 55f
10:30 8 10 mph 1016.2mb 55f
10:24 9 11 mph 1016.2mb 55f
10:18 8 11 mph 1016.4mb 55f
10:12 7 10 mph 1016.3mb 55f
10:06 8 11 mph 1016.3mb 55f
10:00 8 10 mph 1016.2mb 55f
9:54 9 13 mph 1016.2mb 55f
9:48 9 14 mph 1016.3mb 55f
9:42 9 11 mph 1016.4mb 55f
9:36 9 11 mph 1016.4mb 55f
9:30 8 11 mph 1016.4mb 55f
9:24 9 11 mph 1016.4mb 55f
9:18 10 13 mph 1016.4mb 55f
9:12 9 11 mph 1016.5mb 55f
9:06 9 11 mph 1016.6mb 55f
9:00 8 13 mph 1016.5mb 55f
8:54 6 8 mph 1016.4mb 55f
8:48 6 8 mph 1016.4mb 55f
8:42 6 8 mph 1016.4mb 55f
8:36 6 9 mph 1016.4mb 55f
8:30 6 8 mph 1016.3mb 55f
8:18 8 11 mph 1016.3mb 55f
8:12 9 13 mph 1016.2mb 55f
8:06 9 13 mph 1016.3mb 55f
8:00 10 13 mph 1016.3mb 55f
7:54 10 14 mph 1016.2mb 55f
7:48 11 14 mph 1016.2mb 55f
7:42 11 14 mph 1016.1mb 55f
7:36 13 14 mph 1016mb 55f
7:30 13 17 mph 1016.1mb 55f
7:24 10 17 mph 1016.1mb 55f
7:18 11 17 mph 1015.9mb 55f
7:12 11 15 mph 1015.7mb 55f
7:06 14 15 mph 1015.1mb 55f
7:00 13 14 mph 1015.2mb 56f
6:54 11 14 mph 1015.4mb 56f
6:48 10 11 mph 1015.4mb 56f
6:42 10 11 mph 1015.3mb 56f
6:36 8 9 mph 1015.5mb 56f
6:30 6 8 mph 1015.7mb 56f
6:24 5 7 mph 1015.8mb 56f
6:18 6 7 mph 1015.8mb 55f
6:12 6 8 mph 1015.9mb 55f
6:06 7 9 mph 1015.8mb 55f
6:00 7 9 mph 1015.8mb 55f
5:54 8 10 mph 1015.8mb 56f
5:48 8 10 mph 1015.8mb 56f
5:42 9 11 mph 1015.8mb 56f
5:36 9 13 mph 1015.8mb 56f
5:30 9 11 mph 1015.8mb 56f
5:24 9 11 mph 1015.8mb 56f
5:18 10 13 mph 1015.8mb 56f
5:12 8 10 mph 1015.8mb 56f
5:06 8 10 mph 1015.8mb 56f
5:00 9 10 mph 1015.8mb 56f
4:54 9 11 mph 1015.8mb 56f
4:48 10 11 mph 1015.9mb 56f
4:42 9 13 mph 1015.8mb 56f
4:36 10 11 mph 1015.8mb 56f
4:30 9 11 mph 1015.8mb 56f
4:24 9 11 mph 1015.8mb 56f
4:18 10 13 mph 1015.9mb 56f
4:12 10 11 mph 1016mb 56f
4:06 9 11 mph 1016.2mb 56f
4:00 7 10 mph 1016.3mb 56f
3:54 7 8 mph 1016.1mb 57f
3:48 8 11 mph 1016.3mb 56f
3:42 8 10 mph 1016.6mb 57f
3:36 7 10 mph 1016.8mb 56f
3:30 9 11 mph 1016.6mb 56f
3:24 9 13 mph 1016.6mb 56f
3:18 9 11 mph 1016.8mb 56f
3:12 9 10 mph 1017mb 57f
3:06 9 11 mph 1016.9mb 57f
3:00 8 11 mph 1016.9mb 57f
2:54 8 10 mph 1017mb 58f
2:48 7 9 mph 1016.9mb 58f
2:42 9 10 mph 1016.7mb 57f
2:36 9 11 mph 1016.8mb 58f
2:30 8 11 mph 1017mb 58f
2:24 8 11 mph 1017.1mb 59f
2:18 7 8 mph 1017.3mb 59f
2:12 8 10 mph 1017.2mb 57f
2:06 7 10 mph 1017.2mb 58f
2:00 7 8 mph 1017.7mb 58f
1:54 7 9 mph 1017.5mb 56f
1:48 7 9 mph 1017.4mb 56f
1:42 7 9 mph 1017.4mb 56f
1:36 9 11 mph 1017.3mb 56f
1:30 10 11 mph 1017.3mb 56f
1:24 10 11 mph 1017.5mb 56f
1:18 10 11 mph 1017.8mb 56f
1:12 9 11 mph 1018mb 56f
1:06 8 10 mph 1018.4mb 57f
1:00 9 10 mph 1018.4mb 56f
12:54 8 9 mph 1018.3mb 56f
12:48 8 9 mph 1017.7mb 56f
12:42 7 9 mph 1018.3mb 57f
12:36 7 8 mph 1018.3mb 57f
12:30 6 7 mph 1018.3mb 58f
12:24 7 8 mph 1018.4mb 58f
12:18 7 8 mph 1018.5mb 58f
12:12 7 8 mph 1018.6mb 57f
12:06 6 7 mph 1018.3mb 57f
12:00 6 8 mph 1018.4mb 58f
11:54 7 8 mph 1018.5mb 58f
11:48 7 8 mph 1018.8mb 58f
11:42 6 8 mph 1018.8mb 57f
11:36 6 7 mph 1018.7mb 58f
11:30 7 8 mph 1018.9mb 58f
11:24 7 8 mph 1019.1mb 58f
11:18 6 7 mph 1019.4mb 58f
11:12 6 7 mph 1019.6mb 56f
11:06 6 7 mph 1019.7mb 58f
11:00 5 6 mph 1019.5mb 58f
10:54 5 6 mph 1019.7mb 58f
10:48 5 6 mph 1019.7mb 58f
10:42 5 6 mph 1019.7mb 58f
10:36 5 6 mph 1019.8mb 58f
10:30 3
mph
1020mb 56f
10:24 3 5 mph 1020.1mb 56f
10:18 5
mph
1020mb 56f
10:12 5
mph
1019.7mb 55f
10:06 5 6 mph 1019.7mb 55f
10:00 3 5 mph 1019.9mb 56f
9:54 2 5 mph 1019.9mb 57f
9:48 1 2 mph 1020mb 58f
9:42 1 2 mph 1020.2mb 58f
9:36 1 2 mph 1020.1mb 57f
9:30 1 2 mph 1020.1mb 58f
9:24  -  1 mph 1020.2mb 59f
9:18 1 3 mph 1020.1mb 58f
9:12 2
mph
1020.2mb 57f
9:06 2 3 mph 1020.3mb 57f
9:00 3 5 mph 1020.3mb 56f
8:54 3 6 mph 1020.3mb 56f
8:48 2 5 mph - 56f
8:42 1 3 mph - 55f
8:36 1 2 mph - 55f
8:30 2 3 mph - 54f
8:24 3 5 mph - 53f
8:18 3 5 mph - 52f
8:12 5 6 mph - 52f
8:06 3 5 mph - 52f
8:00 3 5 mph - 51f
7:54 3 5 mph - 51f
7:48 3
mph
- 51f
7:42 1 5 mph - 50f
7:36 2 6 mph - 49f
7:30 5 6 mph - 49f
7:18 5
mph
1020.1mb 48f
7:12 3 5 mph 1020mb 48f
7:06 2 3 mph 1019.9mb 47f
7:00 2 3 mph 1019.8mb 47f
6:54 2 5 mph 1019.7mb 47f
6:48 3 5 mph 1019.7mb 46f
6:42 3 6 mph 1019.6mb 46f
6:36 3 5 mph 1019.6mb 46f
6:30 2 5 mph 1019.5mb 46f
6:24 3 6 mph 1019.4mb 46f
6:18 3 6 mph 1019.4mb 47f
6:12 2 5 mph 1019.4mb 47f
6:06 3 6 mph 1019.4mb 49f
6:00 6 7 mph 1019.4mb 49f
5:54 7 8 mph 1019.4mb 49f
5:48 6 7 mph 1019.6mb 49f
5:42 5 6 mph 1019.6mb 49f
5:36 5
mph
1019.7mb 49f
5:30 3 5 mph 1019.7mb 49f
5:24 2 5 mph 1019.8mb 49f
5:18  -  2 mph 1019.7mb 49f
5:12  -  mph 1019.7mb 49f
5:06  -  mph 1019.7mb 49f
5:00  -  2 mph 1019.7mb 48f
4:54 1 2 mph 1019.7mb 48f
4:48  -  1 mph 1019.6mb 48f
4:42  -  mph 1019.6mb 48f
4:36  -  mph 1019.6mb 48f
4:30  -  1 mph 1019.6mb 48f
4:24  -  mph 1019.6mb 48f
4:18  -  mph 1019.6mb 48f
4:12  -  mph 1019.6mb 48f
4:06  -  1 mph 1019.6mb 48f
4:00 1 2 mph 1019.6mb 48f
3:54 1
mph
1019.6mb 48f
3:48  -  1 mph 1019.6mb 48f
3:42  -  1 mph 1019.6mb 48f
3:36 1 2 mph 1019.6mb 48f
3:30 1 2 mph 1019.6mb 48f
3:24 2
mph
1019.7mb 49f
3:18 1 3 mph 1019.6mb 49f
3:12 2 6 mph 1019.6mb 50f
3:06 3 5 mph 1019.7mb 50f
3:00 5 6 mph 1019.9mb 50f
2:54 5 6 mph 1019.9mb 50f
2:48 5 6 mph 1019.9mb 50f
2:42 5 6 mph 1019.9mb 50f
2:36 5 7 mph 1020mb 50f
2:30 3 5 mph 1020mb 50f
2:24 5 6 mph 1020.1mb 50f
2:18 3 6 mph 1020.2mb 50f
2:12 5 6 mph 1020.3mb 50f
2:06 5 6 mph 1020.4mb 50f
2:00 5 6 mph 1020.4mb 50f
1:54 3 6 mph 1020.4mb 51f
1:48 5 6 mph 1020.6mb 51f
1:42 6 8 mph 1020.7mb 51f
1:36 6 8 mph 1020.7mb 51f
1:30 7 8 mph 1020.8mb 51f
1:24 6 7 mph 1020.9mb 52f
1:18 6 7 mph 1021mb 52f
1:12 5 7 mph 1021.2mb 52f
1:06 6 7 mph 1021.2mb 52f
1:00 5 6 mph 1021.2mb 52f
12:54 5 6 mph 1021.2mb 52f
12:48 5 6 mph 1021.2mb 52f
12:42 5 6 mph 1021.3mb 52f
12:36 5 6 mph 1021.4mb 53f
12:30 5 6 mph 1021.3mb 53f
12:24 3 5 mph 1021.3mb 53f
12:18 3 5 mph 1021.4mb 53f
12:12 3 5 mph 1021.5mb 53f
12:06 3
mph
1021.5mb 53f
12:00 3 5 mph 1021.5mb 53f
ven. 02/24 11:54 3 5 mph 1021.5mb 53f
11:48 3 5 mph 1021.5mb 53f
11:42 3
mph
1021.5mb 53f
11:36 3
mph
1021.5mb 53f
11:30 3
mph
1021.5mb 53f
11:24 2 3 mph 1021.5mb 53f
11:18 2 3 mph 1021.5mb 53f
11:06 2
mph
1021.4mb 53f
11:00 2 3 mph 1021.4mb 53f
10:54 1 2 mph 1021.3mb 53f
10:48 1 2 mph 1021.3mb -
10:42  -  1 mph 1021.4mb -
10:36  -  1 mph 1021.4mb -
10:30 1 2 mph 1021.3mb 52f
10:24  -  1 mph 1021.3mb 52f
10:18 1 2 mph 1021.4mb 52f
10:12 1 2 mph 1021.3mb 52f
10:06 2
mph
1021.4mb 52f
10:00 2 3 mph 1021.4mb 52f
9:54 2 3 mph 1021.4mb 53f
9:48 3 5 mph 1021.3mb -
9:42 5 6 mph 1021.2mb -
9:36 5 6 mph 1021.2mb -
9:30 5 6 mph 1021.2mb 53f
9:24 5 6 mph 1021.2mb 53f
9:18 6 7 mph 1021.3mb 53f
9:12 6 7 mph 1021.2mb 53f
9:06 6 7 mph 1021.2mb 53f
9:00 5 6 mph 1021.2mb 53f
8:48 5 6 mph 1021.2mb 53f
8:42 3 5 mph 1021.1mb 53f
8:36 5 6 mph 1021.1mb 53f
8:30 5 6 mph 1021.1mb 53f
8:24 5 6 mph 1021mb 53f
8:18 2 5 mph 1021mb 53f
8:12 3 5 mph 1021mb 53f
8:06 3 5 mph 1021mb 53f
8:00 3 5 mph 1021mb 53f
7:54 2 3 mph 1021mb 53f
7:48 2
mph
1020.9mb 53f
7:42 2 3 mph 1021mb 53f
7:36 5 6 mph 1021mb 54f
7:30 5 6 mph 1021mb 54f
7:24 6 7 mph 1021mb 54f
7:18 6 8 mph 1020.9mb 54f
7:12 6 7 mph 1020.9mb 54f
7:06 8 9 mph 1020.8mb 54f
7:00 6 8 mph 1020.6mb 54f
6:54 6 7 mph 1020.5mb 54f
6:48 6 8 mph 1020.4mb 54f
6:42 6 8 mph 1020.4mb 54f
6:36 3 6 mph 1020.4mb 54f
6:30 3 6 mph 1020.4mb 55f
6:24 6 8 mph 1020.4mb 55f
6:18 8 10 mph 1020.4mb 55f
6:12 9 11 mph 1020.4mb 55f
6:06 8 10 mph 1020.3mb 55f
6:00 8 10 mph 1020.1mb 55f
5:54 8 10 mph 1020.1mb 55f
5:48 9 10 mph 1020.1mb 55f
5:42 9 11 mph 1020.1mb 56f
5:36 8 10 mph 1020.1mb 56f
5:30 8 11 mph 1020.1mb 56f
5:24 9 11 mph 1020.2mb 56f
5:18 8 13 mph 1020.2mb 57f
5:12 8 11 mph 1020.1mb 57f
5:06 8 10 mph 1020.1mb 57f
5:00 9 11 mph 1020mb 57f
4:54 9 13 mph 1020mb 57f
4:48 10 13 mph 1019.9mb 57f
4:42 10 13 mph 1019.9mb 58f
4:36 11 14 mph 1019.9mb 58f
4:30 10 14 mph 1019.8mb 58f
4:24 10 13 mph 1019.9mb 58f
4:18 11 15 mph 1019.9mb 58f
4:12 9 14 mph 1019.8mb 58f
4:06 11 15 mph 1019.9mb 58f
4:00 11 16 mph 1019.8mb 58f
3:54 10 14 mph 1019.7mb 58f
3:48 11 15 mph 1019.7mb 58f
3:42 11 14 mph 1019.6mb 59f
3:36 10 14 mph 1019.6mb 59f
3:30 11 14 mph 1019.6mb 59f
3:24 11 15 mph 1019.8mb 60f
3:18 11 15 mph 1019.8mb 60f
3:12 11 14 mph 1019.9mb 59f
3:06 13 16 mph 1019.7mb 58f
3:00 11 15 mph 1019.8mb 59f
2:54 14 17 mph 1019.8mb 59f
2:48 14 17 mph 1019.8mb 59f
2:42 14 17 mph 1019.8mb 59f
2:36 15 18 mph 1019.9mb 59f
2:30 15 17 mph 1019.9mb 59f
2:24 15 20 mph 1019.8mb 59f
2:18 15 18 mph 1019.8mb 59f
2:12 15 17 mph 1019.9mb 59f
2:06 15 18 mph 1019.9mb 59f
2:00 16 20 mph 1020mb 59f
1:54 15 17 mph 1020mb 59f
1:48 15 17 mph 1020mb 58f
1:42 15 17 mph 1020.1mb 58f
1:36 15 18 mph 1020.1mb 59f
1:30 16 20 mph 1020.2mb 58f
1:24 16 18 mph 1020.2mb 58f
1:18 16 18 mph 1020.3mb 59f
1:12 16 17 mph 1020.4mb 59f
1:06 15 17 mph 1020.4mb 59f
1:00 15 17 mph 1020.3mb 59f
12:54 15 17 mph 1020.4mb 59f
12:48 14 17 mph 1020.5mb 59f
12:42 15 17 mph 1020.7mb 58f
12:36 14 16 mph 1020.9mb 58f
12:30 14 16 mph 1020.9mb 58f
12:24 14 17 mph 1021mb 58f
12:18 15 17 mph 1021.1mb 58f
12:12 13 14 mph 1021.1mb 58f
12:00 9 11 mph 1021.3mb 57f
11:54 9 11 mph 1021.2mb 56f
11:48 10 11 mph 1021.1mb 55f
11:42 10 11 mph 1020.9mb 55f
11:36 9 11 mph 1021.1mb 58f
11:30 7 9 mph 1021.4mb 59f
11:24 9 13 mph 1021.6mb 60f
11:18 8 11 mph 1021.4mb 59f
11:12 8 9 mph 1021.5mb 60f
11:06 8 10 mph 1021.3mb 59f
11:00 7 10 mph 1021.3mb 59f
10:54 7 9 mph 1021.3mb 59f
10:48 6 8 mph 1021.6mb 61f
10:42 6 8 mph 1021.6mb 59f
10:36 6 8 mph 1021.5mb 59f
10:30 6 10 mph 1021.8mb 60f
10:24 3 8 mph 1021.8mb 58f
10:18 2 3 mph 1021.7mb 57f
10:12 1 2 mph 1014.7mb 57f
10:06 1 3 mph - 58f
10:00 1 5 mph - 58f
9:54 2 3 mph - 59f
9:48 2 5 mph - 58f
9:42 5 8 mph - 57f
9:36 2 8 mph - 56f
9:30 3 6 mph - 56f
9:24 2 6 mph - 56f
9:18 3 6 mph - 55f
9:12 5 7 mph - 54f
9:06 5 8 mph - 54f
9:00 6 9 mph 1021.9mb 53f
8:54 6 10 mph - 53f
8:48 5 8 mph - 54f
8:42 2 5 mph - 54f
8:36 2 5 mph - 54f
8:30 2 5 mph - 53f
8:24 2 3 mph - 52f
8:18 3 8 mph - 51f
8:12 5 7 mph - 51f
8:06 6 9 mph - 50f
8:00 2 6 mph - 50f
7:54 6 7 mph - 50f
7:48 6 8 mph - 49f
7:42 7 8 mph - 49f
7:36 6 8 mph - 49f
7:30 6 8 mph 1021mb 48f
7:24 7 9 mph 1020.9mb 48f
7:18 6 8 mph 1020.9mb 48f
7:12 5 6 mph 1020.8mb 47f
7:06 5 7 mph 1020.7mb 47f
7:00 5 8 mph 1020.7mb 47f
6:54 7 8 mph 1020.7mb 47f
6:48 7 9 mph 1020.5mb 46f
6:42 7 8 mph 1020.4mb 46f
6:36 6 8 mph 1020.2mb 46f
6:30 5 7 mph 1020.2mb 46f
6:24 6 8 mph 1020.2mb 46f
6:18 6 9 mph 1020.1mb 46f
6:12 6 9 mph 1020mb 46f
6:06 6 7 mph 1019.9mb 46f
6:00 6 7 mph 1019.9mb 46f
5:54 5 6 mph 1019.8mb 46f
5:48 6 7 mph 1019.6mb 46f
5:42 6 7 mph 1019.6mb 46f
5:36 5 7 mph 1019.6mb 46f
5:30 7 9 mph 1019.6mb 46f
5:24 7 9 mph 1019.5mb 46f
5:18 8 9 mph 1019.4mb 46f
5:12 6 8 mph 1019.3mb 46f
5:06 7 8 mph 1019.4mb 46f
5:00 6 7 mph 1019.5mb 46f
4:54 6 7 mph 1019.5mb 46f
4:48 6 7 mph 1019.5mb 46f
4:42 3 5 mph 1019.4mb 46f
4:36 2 3 mph 1019.3mb 46f
4:30 3 6 mph 1019.3mb 46f
4:24 5 6 mph 1019.3mb 46f
4:18 5 6 mph 1019.1mb 46f
4:12 5 7 mph 1019.2mb 47f
4:06 7 9 mph 1019.2mb 47f
4:00 9 10 mph 1019.1mb 48f
3:54 9 10 mph 1019.1mb 48f
3:48 8 10 mph 1019.1mb 47f
3:42 9 11 mph 1019.1mb 47f
3:36 7 9 mph 1019.1mb 47f
3:30 5 7 mph 1019.2mb 48f
3:24 7 8 mph 1019.3mb 48f
3:18 6 7 mph 1019.1mb 48f
3:12 7 9 mph 1019.1mb 48f
3:06 7 8 mph 1019.1mb 49f
3:00 8 9 mph 1019.1mb 49f
2:54 8 9 mph 1019.1mb 49f
2:48 7 9 mph 1019.1mb 49f
2:42 8 9 mph 1019mb 50f
2:36 8 10 mph 1019mb 50f
2:30 8 10 mph 1019mb 50f
2:24 8 10 mph 1019.1mb 50f
2:18 9 11 mph 1019.2mb 50f
2:12 9 11 mph 1019.3mb 50f
2:06 9 11 mph 1019.3mb 51f
2:00 8 9 mph 1019.3mb 51f
1:54 7 8 mph 1019.3mb 51f
1:48 7 9 mph 1019.3mb 51f
1:42 8 9 mph 1019.3mb 51f
1:36 8 9 mph 1019.3mb 51f
1:30 8 9 mph 1019.3mb 51f
1:24 8 10 mph 1019.3mb 51f
1:18 8 11 mph 1019.3mb 52f
1:12 8 9 mph 1019.3mb 52f
1:06 8 9 mph 1019.3mb 52f
1:00 7 9 mph 1019.3mb 52f
12:54 7 8 mph 1019.2mb 52f
12:48 7 8 mph 1019.2mb 52f
12:42 6 7 mph 1019.2mb 52f
12:30 6 7 mph 1019.2mb 52f
12:24 6 7 mph 1019.3mb 52f
12:18 6 7 mph 1019.3mb 52f
12:12 6 7 mph 1019.2mb 52f
12:06 5 6 mph 1019.2mb 52f
12:00 5 6 mph 1019.2mb 52f
jeu. 02/23 11:54 6 7 mph 1019.2mb 52f
11:48 6 7 mph 1019.2mb 52f
11:42 7 8 mph 1019.2mb 52f
11:36 7 8 mph 1019.2mb 53f
11:30 8 9 mph 1019.2mb 53f
11:24 8 10 mph 1019.1mb 53f
11:18 8 9 mph 1019.1mb 52f
11:12 8 9 mph 1019mb 52f
11:06 8 9 mph 1019mb 53f
11:00 7 9 mph 1018.9mb 53f
10:54 7 9 mph 1018.9mb 53f
10:42 7 8 mph 1018.9mb -
10:36 7 9 mph 1018.8mb -
10:30 7 9 mph 1018.9mb 53f
10:24 7 8 mph 1018.8mb 53f
10:18 8 9 mph 1018.8mb 53f
10:12 8 11 mph 1018.8mb 53f
10:06 7 9 mph 1018.8mb 53f
10:00 7 9 mph 1018.7mb 53f
9:54 7 9 mph 1018.7mb 53f
9:48 8 10 mph 1018.7mb -
9:42 8 10 mph 1018.6mb -
9:36 8 10 mph 1018.6mb -
9:30 8 10 mph 1018.6mb 54f
9:24 8 9 mph 1018.6mb 54f
9:18 8 10 mph 1018.5mb 54f
9:12 8 9 mph 1018.5mb 54f
9:06 7 10 mph 1018.5mb 54f
9:00 8 10 mph 1018.5mb 54f
8:54 9 11 mph 1018.4mb 54f
8:48 10 13 mph 1018.4mb 55f
8:42 10 13 mph 1018.4mb 55f
8:36 8 11 mph 1018.3mb 55f
8:30 11 16 mph 1018.2mb 55f
8:24 13 15 mph 1018.2mb 55f
8:18 11 15 mph 1018.2mb 55f
8:12 15 20 mph 1018mb 56f
8:06 14 17 mph 1018mb 56f
8:00 16 21 mph 1018mb 56f
7:54 15 18 mph 1017.8mb 56f
7:48 15 18 mph 1017.7mb 56f
7:42 15 21 mph 1017.6mb 56f
7:36 14 18 mph 1017.7mb 56f
7:30 14 17 mph 1017.6mb 56f
7:24 14 17 mph 1017.5mb 56f
7:18 15 18 mph 1017.4mb 56f
7:12 16 20 mph 1017.3mb 55f
7:06 15 20 mph 1017.3mb 55f
7:00 15 20 mph 1017.2mb 55f
6:54 16 21 mph 1017.2mb 55f
6:48 16 20 mph 1017mb 55f
6:42 16 20 mph 1016.9mb 55f
6:36 16 21 mph 1016.9mb 55f
6:30 15 18 mph 1016.9mb 55f
6:24 15 20 mph 1016.9mb 56f
6:18 13 17 mph 1017mb 56f
6:12 13 17 mph 1017mb 56f
6:06 14 17 mph 1016.9mb 56f
6:00 14 16 mph 1016.9mb 56f
5:54 13 15 mph 1016.8mb 56f
5:48 11 15 mph 1016.8mb 56f
5:42 10 15 mph 1016.8mb 56f
5:36 11 16 mph 1016.8mb 56f
5:30 11 16 mph 1016.8mb 56f
5:24 14 21 mph 1016.7mb 56f
5:18 15 21 mph 1016.8mb 56f
5:12 15 17 mph 1016.6mb 56f
5:06 14 18 mph 1016.6mb 56f
5:00 18 23 mph 1016.6mb 56f
4:54 18 23 mph 1016.4mb 56f
4:48 17 20 mph 1016.4mb 56f
4:42 16 21 mph 1016.4mb 57f
4:36 17 22 mph 1016.4mb 57f
4:30 16 20 mph 1016.5mb 57f
4:24 15 20 mph 1016.6mb 58f
4:18 17 21 mph 1016.4mb 58f
4:12 17 20 mph 1016.4mb 58f
4:06 16 22 mph 1016.5mb 58f
4:00 17 20 mph 1016.4mb 57f
3:54 15 20 mph 1016.3mb 58f
3:48 15 20 mph 1016.3mb 58f
3:42 15 20 mph 1016.3mb 58f
3:36 14 18 mph 1016.4mb 58f
3:30 11 16 mph 1016.4mb 58f
3:24 14 18 mph 1016.3mb 57f
3:18 14 18 mph 1016.3mb 57f
3:12 15 22 mph 1016.3mb 57f
3:06 16 25 mph 1016.3mb 57f
3:00 17 23 mph 1016.3mb 57f
2:54 16 23 mph 1016.2mb 57f
2:48 15 21 mph 1016.3mb 57f
2:42 14 22 mph 1016.3mb 57f
2:36 14 20 mph 1016.4mb 57f
2:30 14 22 mph 1016.3mb 57f
2:24 14 20 mph 1016.2mb 57f
2:18 14 24 mph 1016.2mb 57f
2:12 15 20 mph 1016.1mb 57f
2:06 15 23 mph 1016.2mb 57f
2:00 16 23 mph 1016.2mb 58f
1:54 18 25 mph 1016.1mb 57f
1:48 20 24 mph 1016mb 57f
1:42 18 23 mph 1016.2mb 58f
1:36 20 25 mph 1016.1mb 57f
1:30 20 24 mph 1016.1mb 57f
1:24 22 26 mph 1016.3mb 58f
1:18 21 25 mph 1016.3mb 58f
1:12 23 29 mph 1016.2mb 57f
1:06 21 26 mph 1016.2mb 58f
1:00 22 28 mph 1016.3mb 58f
12:54 22 29 mph 1016.4mb 58f
12:48 22 28 mph 1016.5mb 58f
12:42 22 26 mph 1016.3mb 57f
12:36 21 26 mph 1016.5mb 58f
12:30 21 25 mph 1016.7mb 59f
12:24 21 25 mph 1016.8mb 58f
12:18 21 25 mph 1016.9mb 59f
12:12 16 25 mph - 59f
12:06 17 21 mph - 60f
12:00 18 23 mph - 59f
11:54 17 22 mph - 60f
11:48 18 23 mph - 59f
11:42 16 23 mph - 60f
11:36 17 22 mph - 59f
11:30 16 22 mph - 59f
11:24 20 24 mph - 59f
11:18 17 22 mph - 59f
11:12 17 22 mph - 59f
11:06 17 21 mph - 58f
11:00 17 21 mph - 58f
10:54 18 23 mph - 58f
10:48 16 22 mph - 58f
10:42 16 21 mph - 58f
10:36 15 18 mph - 58f
10:30 14 18 mph - 57f
10:24 14 18 mph - 58f
10:18 16 20 mph 1004.5mb 57f
10:12 15 21 mph - 57f
10:06 15 18 mph - 57f
10:00 16 20 mph - 57f
9:54 17 21 mph - 57f
9:48 16 21 mph - 56f
9:42 15 21 mph 1004.6mb 56f
9:36 17 20 mph - 55f
9:30 14 18 mph - 56f
9:24 14 17 mph - 56f
9:18 17 22 mph 1011.6mb 55f
9:12 18 22 mph 1018.5mb 55f
9:06 20 23 mph 1018.4mb 55f
9:00 21 25 mph 1018.4mb 55f
8:54 20 24 mph 1018.5mb 55f
8:48 18 23 mph 1018.6mb 54f
8:42 18 23 mph 1018.6mb 54f
8:36 20 24 mph 1018.6mb 54f
8:30 18 24 mph 1018.6mb 54f
8:24 17 22 mph 1018.6mb 54f
8:18 16 22 mph 1018.7mb 54f
8:12 15 21 mph 1018.7mb 54f
8:06 14 18 mph 1018.7mb 54f
8:00 14 17 mph 1018.7mb 53f
7:54 14 18 mph 1018.6mb 53f
7:48 14 17 mph 1018.6mb 52f
7:42 14 17 mph 1018.5mb 52f
7:36 14 17 mph 1018.5mb 52f
7:30 15 17 mph 1018.4mb 52f
7:24 15 20 mph 1018.4mb 52f
7:18 15 17 mph 1018.5mb 52f
7:12 14 17 mph 1018.5mb 52f
7:06 14 17 mph 1018.3mb 51f
7:00 14 18 mph 1018.2mb 51f
6:54 14 18 mph 1018.2mb 51f
6:48 14 17 mph 1018.1mb 51f
6:42 13 15 mph 1018mb 51f
6:36 14 16 mph 1018mb 51f
6:30 14 17 mph 1017.9mb 51f
6:18 15 17 mph 1017.7mb 51f
6:12 14 17 mph 1017.7mb 51f
6:06 15 17 mph 1017.7mb 51f
6:00 14 17 mph 1017.7mb 51f
5:54 14 17 mph 1017.5mb 51f
5:48 14 18 mph 1017.4mb 52f
5:42 14 16 mph 1017.4mb 52f
5:36 13 16 mph 1017.3mb 52f
5:30 14 16 mph 1017.2mb 52f
5:24 14 16 mph 1017.2mb 52f
5:18 13 15 mph 1017.1mb 52f
5:12 11 15 mph 1017mb 52f
5:06 13 17 mph 1017.1mb 52f
5:00 13 16 mph 1017mb 52f
4:54 11 15 mph 1016.9mb 52f
4:48 13 17 mph 1016.9mb 52f
4:42 13 16 mph 1016.8mb 52f
4:36 13 17 mph 1016.7mb 53f
4:30 13 15 mph 1016.7mb 53f
4:24 10 15 mph 1016.7mb 53f
4:18 11 15 mph 1016.6mb 53f
4:12 14 17 mph 1016.6mb 53f
4:06 11 16 mph 1016.6mb 53f
4:00 11 15 mph 1016.6mb 53f
3:54 14 17 mph 1016.6mb 53f
3:48 14 17 mph 1016.6mb 53f
3:42 13 18 mph 1016.5mb 53f
3:36 14 17 mph 1016.6mb 53f
3:30 14 18 mph 1016.5mb 53f
3:24 13 16 mph 1016.5mb 53f
3:18 13 18 mph 1016.6mb 53f
3:12 14 16 mph 1016.6mb 53f
3:06 14 18 mph 1016.7mb 54f
3:00 13 15 mph 1016.8mb 54f
2:54 13 15 mph 1016.8mb 54f
2:48 13 15 mph 1016.9mb 54f
2:42 14 16 mph 1016.9mb 54f
2:36 14 17 mph 1016.9mb 54f
2:30 14 16 mph 1016.9mb 55f
2:24 15 18 mph 1016.9mb 55f
2:18 14 18 mph 1017mb 55f
2:12 14 16 mph 1017.1mb 55f
2:06 14 16 mph 1017.1mb 55f
2:00 14 17 mph 1017.2mb 55f
1:54 14 17 mph 1017.2mb 55f
1:48 14 16 mph 1017.3mb 55f
12:54 14 17 mph 1017.4mb 55f
12:48 16 21 mph 1017.4mb 55f
mer. 02/22 11:54 15 22 mph 1017.6mb 56f
11:48 17 21 mph 1017.5mb 56f
10:54 16 22 mph 1017.3mb 57f
10:48 16 21 mph 1017.3mb 57f
9:54 16 20 mph 1016.9mb 58f
9:48 15 17 mph 1016.9mb 58f
8:54 16 18 mph 1016.6mb 58f
8:48 16 20 mph 1016.6mb 58f
7:54 15 18 mph 1016.4mb 58f
7:48 15 20 mph 1016.3mb 58f
6:54 22 25 mph 1015.9mb 58f
6:48 21 24 mph 1015.9mb 58f
5:54 20 24 mph 1015.8mb 59f
5:48 20 23 mph 1015.8mb 59f
4:54 15 22 mph 1016.1mb 60f
4:48 18 22 mph 1016.1mb 60f
3:54 14 17 mph 1016.1mb 62f
3:48 11 15 mph 1016.3mb 62f
2:54 11 15 mph 1016.9mb 60f
2:48 14 17 mph 1016.9mb 60f
1:54 10 14 mph 1017mb 61f
1:48 13 17 mph - 62f
12:54 11 16 mph - 61f
12:48 14 17 mph - 60f
11:54 10 15 mph - 60f
11:48 11 16 mph - 61f
10:54 13 15 mph - 60f
10:48 11 15 mph - 60f
9:54 8 10 mph - 62f
9:48 9 11 mph - 61f
8:54 11 13 mph - 58f
8:48 11 14 mph - 59f
7:54 13 16 mph - 58f
7:48 8 10 mph - 58f